Regional Weather Roundup
Issued by NWS

Home | Current Version | Previous Version | Text Only | Print | Product List | Glossary Off
Versions: 1 2 3 4 5 6 7 8 9 10 11 12 13 14 15 16 17 18 19 20 21 22 23 24 25 26 27 28 29 30 31 32 33 34 35 36 37 38 39 40 41 42 43 44 45 46 47 48 49 50

000
ASUS45 KSLC 270010
RWRUT

UTAH REGIONAL WEATHER ROUNDUP
NATIONAL WEATHER SERVICE SALT LAKE CITY UT
500 PM MST WED NOV 26 2014

UTZ001>011-023>025-270100-

NORTHERN UTAH

CITY           SKY/WX    TMP DP  RH WIND       PRES   REMARKS
BRIGHAM CITY   MOCLDY    52  33  48 E3        30.35S
HILL AFB       PTCLDY    51  30  45 S5        30.36S
LOGAN          CLEAR     51  31  46 CALM      30.34R
OGDEN          PTCLDY    52  31  44 SE5       30.35S
PROVO AIRPORT  PTCLDY    48  28  46 CALM      30.38
SALT LAKE CITY MOCLDY    57  27  31 S3        30.35S
VERNAL         CLEAR     48  29  47 CALM      30.33R
WENDOVER       CLEAR     52  30  43 NE7       30.34S
HEBER CITY     CLEAR     43  30  61 CALM      30.38S
WEST JORDAN    CLEAR     52  36  54 CALM      30.37S

$$

UTZ012>022-026-027-270100-

SOUTHERN/CENTRAL UTAH

CITY           SKY/WX    TMP DP  RH WIND       PRES   REMARKS
BLANDING       CLEAR     49  20  30 S6        30.45R
BRYCE CANYON   CLEAR     47  19  33 N6        30.47R
CEDAR CITY     CLEAR     57  22  25 NE3       30.39R
DELTA          CLEAR     54  28  37 SW3       30.39F
MILFORD        CLEAR     60  22  23 CALM      30.38R
MOAB/CYNLANDS  CLEAR     48  16  27 NW8       30.35R
PRICE          CLEAR     51  24  34 W6        30.38R
ST GEORGE      CLEAR     57  18  21 CALM      30.35R
KANAB          CLEAR     57  21  24 CALM      30.40S

$$

REGIONAL REPORTS     COLORADO/ARIZONA

CITY           SKY/WX    TMP DP  RH WIND       PRES   REMARKS
CRAIG, CO      PTCLDY    39  28  64 SW9       30.32R WCI  33
GRAND JUNCTION CLEAR     44  23  43 W5        30.37R
RIFLE          CLEAR     38  26  62 S6        30.39R WCI  33
MONTROSE       CLEAR     47  26  44 NW7       30.39R
CORTEZ         CLEAR     47  21  35 W6        30.38R
PAGE, AZ       CLEAR     55  20  25 CALM      30.35S
GRAND CANYON   CLEAR     55  16  21 NW5       30.44R
KINGMAN        CLEAR     63  16  16 NE7       30.32R
FLAGSTAFF      CLEAR     54  15  21 E7        30.44R

$$

REGIONAL REPORTS    NEVADA/IDAHO/WYOMING

CITY           SKY/WX    TMP DP  RH WIND       PRES   REMARKS
LAS VEGAS, NV  CLEAR     67  16  14 S5        30.26S
ELY            CLEAR     56  14  19 CALM      30.41S
ELKO           PTCLDY    54  31  41 W3        30.35S
POCATELLO, ID  CLEAR     49  35  58 S10       30.29S
BURLEY         CLEAR     48  35  60 SW3       30.28S
EVANSTON, WY   PTCLDY    40  27  59 SW14      30.38S WCI  32
ROCK SPRINGS   MOCLDY    41  27  57 W14       30.32R

$$


USA.gov is the U.S. government's official web portal to all federal, state and local government web resources and services.